DW5138 Weather Reports


time (UTC)temp
F
wind
direction
speed
knots
gust
knots
rain 1hr
in
rain 24hr
in
rain mn
in
humidity
%
barometer
mb
20260906125459 64 98 0.0 0.0 0.00 0.00 0.00 62 3066.2
20260906124959 64 98 0.0 0.0 0.00 0.00 0.00 62 3066.3
20260906123959 64 98 0.0 0.0 0.00 0.00 0.00 62 3066.3
20260906123458 64 98 0.0 0.0 0.00 0.00 0.00 62 3066.2
20260906122959 64 98 0.0 0.0 0.00 0.00 0.00 62 3066.2
20260906122458 64 98 0.0 0.0 0.00 0.00 0.00 62 3066.2
20260906121458 64 98 0.0 0.0 0.00 0.00 0.00 62 3070.0
20260906120958 64 98 0.0 0.0 0.00 0.00 0.00 62 3070.0
20260906120458 64 98 0.0 0.0 0.00 0.00 0.00 62 3069.8
20260906115958 64 98 0.0 0.0 0.00 0.00 0.00 62 3070.2
20260906115458 64 98 0.0 0.0 0.00 0.00 0.00 62 3070.0
20260906114958 64 98 0.0 0.0 0.00 0.00 0.00 62 3070.2
20260906114458 64 98 0.0 0.0 0.00 0.00 0.00 62 3069.9
20260906113958 64 98 0.0 0.0 0.00 0.00 0.00 62 3070.2
20260906113458 64 98 0.0 0.0 0.00 0.00 0.00 62 3070.2
20260906112958 64 98 0.0 0.0 0.00 0.00 0.00 62 3070.1
20260906111958 64 98 0.0 0.0 0.00 0.00 0.00 62 3070.0
20260906111457 64 98 0.0 0.0 0.00 0.00 0.00 62 3071.3
20260906110958 64 98 0.0 0.0 0.00 0.00 0.00 62 3071.3
20260906110458 64 98 0.0 0.0 0.00 0.00 0.00 62 3071.8
20260906104458 64 98 0.0 0.0 0.00 0.00 0.00 62 3072.3
20260906103957 64 98 0.0 0.0 0.00 0.00 0.00 62 3072.6
20260906103457 64 98 0.0 0.0 0.00 0.00 0.00 62 3072.7
20260906102957 64 98 0.0 0.0 0.00 0.00 0.00 62 3073.0
20260906102457 64 98 0.0 0.0 0.00 0.00 0.00 62 3073.2
20260906101957 64 98 0.0 0.0 0.00 0.00 0.00 62 3074.1
20260906101457 64 98 0.0 0.0 0.00 0.00 0.00 62 3072.1
20260906100957 64 98 0.0 0.0 0.00 0.00 0.00 62 3071.0
20260906100456 65 97 0.0 0.0 0.00 0.00 0.00 57 3071.0
20260906095956 65 97 0.0 0.0 0.00 0.00 0.00 55 3070.6
20260906094456 65 97 0.0 0.0 0.00 0.00 0.00 55 3070.3
20260906093456 64 97 0.0 0.0 0.00 0.00 0.00 57 3070.1
20260906092956 64 97 0.0 0.0 0.00 0.00 0.00 58 3070.1
20260906092456 64 97 0.0 0.0 0.00 0.00 0.00 60 3070.1
20260906091956 64 97 0.0 0.0 0.00 0.00 0.00 60 3070.3
20260906091456 64 97 0.0 0.0 0.00 0.00 0.00 60 3068.6
20260906090956 64 97 0.0 0.0 0.00 0.00 0.00 60 3068.4
20260906090456 65 97 0.0 0.0 0.00 0.00 0.00 59 3068.4
20260906085956 65 97 0.0 0.0 0.00 0.00 0.00 59 3068.6
20260906085455 65 97 0.0 0.0 0.00 0.00 0.00 59 3068.4
20260906084956 64 97 0.0 0.0 0.00 0.00 0.00 61 3068.5
20260906084456 64 97 0.0 0.0 0.00 0.00 0.00 63 3068.3
20260906083456 64 97 0.0 0.0 0.00 0.00 0.00 65 3068.3
20260906081955 64 97 0.0 0.0 0.00 0.00 0.00 67 3069.4
20260906081455 64 97 0.0 0.0 0.00 0.00 0.00 67 3073.0
20260906075455 63 97 0.0 0.0 0.00 0.00 0.00 69 3071.9
20260906074454 63 97 0.0 0.0 0.00 0.00 0.00 71 3072.6
20260906073954 63 97 0.0 0.0 0.00 0.00 0.00 71 3072.4
20260906072455 64 97 0.0 0.0 0.00 0.00 0.00 71 3073.7
20260906071954 64 97 0.0 0.0 0.00 0.00 0.00 70 3073.6
20260906071454 64 97 0.0 0.0 0.00 0.00 0.00 70 3074.2
20260906070454 64 97 0.0 0.0 0.00 0.00 0.00 70 3075.0
20260906065454 65 97 0.0 0.0 0.00 0.00 0.00 70 3076.3
20260906064954 65 97 0.0 0.0 0.00 0.00 0.00 70 3076.7
20260906064454 65 97 0.0 0.0 0.00 0.00 0.00 69 3076.3
20260906063954 65 97 0.0 0.0 0.00 0.00 0.00 68 3076.3
20260906063454 66 97 0.0 0.0 0.00 0.00 0.00 67 3076.6
20260906062454 66 97 0.0 0.0 0.00 0.00 0.00 66 3076.2
20260906061954 66 97 0.0 0.0 0.00 0.00 0.00 67 3075.9
20260906061454 66 97 0.0 0.0 0.00 0.00 0.00 67 3076.1
20260906060954 66 97 0.0 0.0 0.00 0.00 0.00 67 3075.9
20260906055954 66 97 0.0 0.0 0.00 0.00 0.00 67 3075.0
20260906055453 66 97 0.0 0.0 0.00 0.00 0.00 67 3075.4
20260906054953 66 97 0.0 0.0 0.00 0.00 0.00 66 3075.0
20260906053953 67 97 0.0 0.0 0.00 0.00 0.00 65 3074.5
20260906053453 67 97 0.0 0.0 0.00 0.00 0.00 66 3074.7
20260906051954 66 97 0.0 0.0 0.00 0.00 0.00 66 3074.6
20260906051453 67 97 0.0 0.0 0.00 0.00 0.00 66 3076.0
20260906050453 67 97 0.0 0.0 0.00 0.00 0.00 64 3076.3
20260906045953 68 97 0.0 0.0 0.00 0.00 0.00 63 3077.7
20260906045453 68 97 0.0 0.0 0.00 0.00 0.00 62 3077.6
20260906044953 69 97 0.0 0.0 0.00 0.00 0.00 62 3077.9
20260906044453 69 97 0.0 0.0 0.00 0.00 0.00 60 3078.0
20260906041452 70 97 0.0 0.0 0.00 0.00 0.00 60 3077.2
20260906040952 70 97 0.0 0.0 0.00 0.00 0.00 60 3076.8
20260906035952 70 97 0.0 0.0 0.00 0.00 0.00 59 3076.9
20260906034952 71 97 0.0 0.0 0.00 0.00 0.00 58 3078.2
20260906033952 71 97 0.0 0.0 0.00 0.00 0.00 57 3078.1
20260906033452 71 97 0.0 0.0 0.00 0.00 0.00 56 3078.0
20260906032952 71 97 0.0 0.0 0.00 0.00 0.00 56 3078.1
20260906031952 70 91 0.0 0.0 0.00 0.00 0.00 54 3075.9
20260906030952 71 91 0.0 0.0 0.00 0.00 0.00 50 3074.3
20260906030451 71 91 0.0 4.3 0.00 0.00 0.00 50 3074.2
20260906025952 72 91 0.0 4.3 0.00 0.00 0.00 52 3074.3
20260906025452 72 66 0.0 0.0 0.00 0.00 0.00 54 3073.9
20260906024951 72 66 0.0 0.0 0.00 0.00 0.00 54 3073.9
20260906024452 72 65 0.0 1.7 0.00 0.00 0.00 53 3073.7
20260906023952 72 128 0.0 1.7 0.00 0.00 0.00 48 3073.3
20260906023452 72 144 0.0 1.7 0.00 0.00 0.00 45 3072.9
20260906022952 73 154 0.0 1.7 0.00 0.00 0.00 38 3072.8
20260906022451 73 164 0.0 0.0 0.00 0.00 0.00 37 3072.6
20260906021951 74 61 0.0 0.0 0.00 0.00 0.00 37 3071.7
20260906021451 74 61 0.0 0.0 0.00 0.00 0.00 36 3061.7
20260906020952 75 61 0.0 0.0 0.00 0.00 0.00 36 3063.0
20260906020451 75 61 0.0 0.0 0.00 0.00 0.00 36 3062.4
20260906015952 75 61 0.0 0.0 0.00 0.00 0.00 37 3062.5
20260906015451 75 61 0.0 0.0 0.00 0.00 0.00 37 3062.5
20260906014951 75 61 0.0 0.0 0.00 0.00 0.00 37 3062.5
20260906014451 75 61 0.0 0.0 0.00 0.00 0.00 37 3062.2
20260906013951 75 61 0.0 0.0 0.00 0.00 0.00 37 3062.1
20260906013451 75 61 0.0 0.0 0.00 0.00 0.00 37 3062.0
20260906011951 76 61 0.0 0.0 0.00 0.00 0.00 36 3061.5
20260906011451 76 61 0.0 0.0 0.00 0.00 0.00 36 3058.8
20260906010450 77 61 0.0 0.0 0.00 0.00 0.00 35 3059.9
20260906005951 78 61 0.0 0.0 0.00 0.00 0.00 34 3060.1
20260906005450 79 61 0.0 0.0 0.00 0.00 0.00 33 3061.5
20260906004950 80 61 0.0 0.0 0.00 0.00 0.00 32 3061.9
20260906004450 82 61 0.0 0.0 0.00 0.00 0.00 30 3063.2
20260906003950 82 61 0.0 0.0 0.00 0.00 0.00 30 3063.4
20260906003450 81 61 0.0 0.0 0.00 0.00 0.00 32 3063.3
20260906002950 81 61 0.0 0.0 0.00 0.00 0.00 31 3063.2
20260906002450 81 61 0.0 0.0 0.00 0.00 0.00 30 3063.0
20260906001450 82 61 0.0 0.0 0.00 0.00 0.00 30 3060.8
20260906000950 83 61 0.0 0.0 0.00 0.00 0.00 30 3061.9
20260906000450 84 61 0.0 0.0 0.00 0.00 0.00 28 3062.1
20260905235950 84 61 0.0 0.0 0.00 0.00 0.00 27 3061.7
20260905235450 84 61 0.0 0.0 0.00 0.00 0.00 27 3061.7
20260905234450 84 61 0.0 0.0 0.00 0.00 0.00 28 3061.5
20260905233949 83 61 0.0 0.0 0.00 0.00 0.00 29 3061.5
20260905233449 83 61 0.0 0.0 0.00 0.00 0.00 29 3061.5
20260905232949 83 61 0.0 0.0 0.00 0.00 0.00 28 3061.5
20260905232450 83 61 0.0 0.0 0.00 0.00 0.00 28 3061.5
20260905231449 84 61 0.0 0.0 0.00 0.00 0.00 27 3061.0
20260905230450 83 112 0.0 0.0 0.00 0.00 0.00 29 3061.2
20260905225450 83 64 0.0 0.0 0.00 0.00 0.00 29 3061.2
20260905224949 83 63 0.0 0.0 0.00 0.00 0.00 30 3061.8
20260905223950 82 63 0.0 0.0 0.00 0.00 0.00 30 3060.3
20260905223449 83 63 0.0 0.0 0.00 0.00 0.00 30 3062.1
20260905222949 83 63 0.0 0.0 0.00 0.00 0.00 30 3062.2
20260905221949 82 47 0.0 0.0 0.00 0.00 0.00 31 3060.5
20260905221449 81 47 0.0 0.0 0.00 0.00 0.00 32 3060.9
20260905220949 81 45 0.0 0.0 0.00 0.00 0.00 31 3060.9
20260905220449 81 45 0.0 0.0 0.00 0.00 0.00 31 3061.4
20260905215948 81 45 0.0 0.0 0.00 0.00 0.00 31 3061.5
20260905215449 82 45 0.0 0.0 0.00 0.00 0.00 30 3061.4
20260905214948 82 101 0.0 0.0 0.00 0.00 0.00 30 3061.2
20260905214448 82 101 0.0 0.0 0.00 0.00 0.00 30 3061.3
20260905213948 81 101 0.0 0.0 0.00 0.00 0.00 29 3061.1
20260905213448 81 101 0.0 0.9 0.00 0.00 0.00 30 3061.2
20260905212948 81 89 0.0 1.7 0.00 0.00 0.00 31 3061.4
20260905212448 80 89 0.9 5.2 0.00 0.00 0.00 31 3059.8
20260905211949 80 36 0.0 6.1 0.00 0.00 0.00 31 3059.9
20260905211448 81 256 2.6 7.0 0.00 0.00 0.00 32 3063.2
20260905210948 82 213 0.0 7.0 0.00 0.00 0.00 30 3063.3
20260905210448 82 7 0.0 7.0 0.00 0.00 0.00 27 3062.5
20260905205948 83 161 0.0 7.0 0.00 0.00 0.00 27 3064.2
20260905205448 83 60 0.0 2.6 0.00 0.00 0.00 26 3063.8
20260905204948 84 152 0.0 6.1 0.00 0.00 0.00 25 3063.5
20260905204448 84 78 0.0 6.1 0.00 0.00 0.00 25 3063.1
20260905203948 85 291 2.6 4.3 0.00 0.00 0.00 25 3064.2
20260905202947 85 274 0.0 5.2 0.00 0.00 0.00 25 3064.2
20260905202448 86 109 0.0 5.2 0.00 0.00 0.00 24 3064.1
20260905201948 86 256 0.0 4.3 0.00 0.00 0.00 23 3064.1
20260905201447 87 52 0.0 4.3 0.00 0.00 0.00 24 3065.7
20260905195947 88 149 0.0 3.5 0.00 0.00 0.00 22 3066.8
20260905195448 88 357 0.9 3.5 0.00 0.00 0.00 22 3066.7
20260905194947 88 49 0.0 4.3 0.00 0.00 0.00 22 3066.7
20260905194447 89 56 0.0 4.3 0.00 0.00 0.00 22 3067.0
20260905193947 89 104 0.0 2.6 0.00 0.00 0.00 22 3066.9
20260905193447 88 82 0.0 2.6 0.00 0.00 0.00 22 3066.9
20260905192947 87 66 0.0 0.9 0.00 0.00 0.00 23 3066.0
20260905192447 87 66 0.0 1.7 0.00 0.00 0.00 23 3066.2
20260905191948 87 35 0.0 1.7 0.00 0.00 0.00 23 3066.0
20260905190446 89 109 0.0 4.3 0.00 0.00 0.00 22 3068.9
20260905185946 89 24 2.6 4.3 0.00 0.00 0.00 23 3069.4
20260905184446 88 72 0.0 5.2 0.00 0.00 0.00 24 3068.9
20260905183947 88 162 0.0 5.2 0.00 0.00 0.00 23 3068.9
20260905183446 89 87 0.9 4.3 0.00 0.00 0.00 22 3069.5
20260905182946 89 240 0.9 4.3 0.00 0.00 0.00 22 3070.0
20260905182446 88 78 0.0 5.2 0.00 0.00 0.00 24 3068.9
20260905181946 86 231 0.0 5.2 0.00 0.00 0.00 24 3068.0
20260905181447 87 318 0.0 5.2 0.00 0.00 0.00 24 3071.9
20260905180946 88 59 0.0 7.8 0.00 0.00 0.00 23 3072.2
20260905180447 89 159 0.0 7.8 0.00 0.00 0.00 23 3073.5
20260905175946 90 194 1.7 6.1 0.00 0.00 0.00 22 3073.7
20260905175446 90 211 0.9 6.1 0.00 0.00 0.00 23 3073.8
20260905174946 90 272 0.0 7.0 0.00 0.00 0.00 22 3073.7
20260905174446 89 267 4.3 7.0 0.00 0.00 0.00 23 3073.6
20260905173946 89 275 0.0 6.1 0.00 0.00 0.00 22 3074.0
20260905172946 89 336 0.9 6.1 0.00 0.00 0.00 23 3074.1
20260905172446 88 159 2.6 6.1 0.00 0.00 0.00 23 3072.7
20260905171946 88 229 2.6 5.2 0.00 0.00 0.00 23 3073.0
20260905171445 88 235 2.6 5.2 0.00 0.00 0.00 24 3074.2
20260905170945 88 6 0.0 7.8 0.00 0.00 0.00 23 3074.2
20260905170445 88 348 0.0 7.8 0.00 0.00 0.00 24 3074.4
20260905165945 88 25 0.0 7.0 0.00 0.00 0.00 25 3074.3
20260905165445 87 335 2.6 7.0 0.00 0.00 0.00 25 3073.0
20260905164945 87 303 4.3 7.8 0.00 0.00 0.00 25 3072.8
20260905164446 87 271 2.6 7.8 0.00 0.00 0.00 25 3072.5
20260905163945 86 78 0.0 7.0 0.00 0.00 0.00 26 3072.3
20260905163445 86 309 7.0 9.6 0.00 0.00 0.00 26 3072.5
20260905162945 85 253 0.0 9.6 0.00 0.00 0.00 26 3071.5
20260905161945 86 208 0.9 5.2 0.00 0.00 0.00 26 3072.4
20260905155945 85 7 0.0 5.2 0.00 0.00 0.00 27 3072.6
20260905154945 84 217 4.3 4.3 0.00 0.00 0.00 27 3072.4
20260905153446 83 350 0.9 3.5 0.00 0.00 0.00 29 3071.0
20260905152944 83 277 0.0 5.2 0.00 0.00 0.00 30 3071.2
20260905152445 82 249 0.0 5.2 0.00 0.00 0.00 30 3071.4
20260905151945 81 359 0.9 0.9 0.00 0.00 0.00 33 3070.2
20260905151445 80 32 0.0 4.3 0.00 0.00 0.00 33 3071.4
20260905150444 79 284 0.0 3.5 0.00 0.00 0.00 34 3070.1
20260905145944 79 356 0.0 1.7 0.00 0.00 0.00 36 3070.8
20260905144944 77 208 0.0 0.9 0.00 0.00 0.00 39 3069.7
20260905144444 76 358 0.0 0.0 0.00 0.00 0.00 41 3070.3
20260905143944 75 358 0.0 0.0 0.00 0.00 0.00 41 3068.9
20260905143444 73 6 0.0 0.0 0.00 0.00 0.00 45 3067.8
20260905142944 72 7 0.0 0.0 0.00 0.00 0.00 52 3068.3
20260905142444 70 99 0.0 0.0 0.00 0.00 0.00 56 3067.1
20260905141944 67 99 0.0 0.0 0.00 0.00 0.00 59 3064.0
20260905141444 66 99 0.0 0.0 0.00 0.00 0.00 60 3065.5
20260905140944 65 99 0.0 0.0 0.00 0.00 0.00 63 3064.2
20260905140444 65 99 0.0 0.0 0.00 0.00 0.00 62 3063.8
20260905135944 66 99 0.0 0.0 0.00 0.00 0.00 62 3065.1
20260905135443 66 99 0.0 0.0 0.00 0.00 0.00 60 3064.7
20260905134944 65 99 0.0 0.0 0.00 0.00 0.00 62 3063.1
20260905134444 64 99 0.0 0.0 0.00 0.00 0.00 66 3063.2
20260905133943 63 99 0.0 0.0 0.00 0.00 0.00 67 3061.4
20260905133444 63 99 0.0 0.0 0.00 0.00 0.00 65 3060.8
20260905132943 63 99 0.0 0.0 0.00 0.00 0.00 66 3060.4
20260905132443 63 99 0.0 0.0 0.00 0.00 0.00 66 3059.9
20260905131943 63 99 0.0 0.0 0.00 0.00 0.00 65 3059.6
20260905131444 63 99 0.0 0.0 0.00 0.00 0.00 67 3063.6
20260905130943 59 53 0.0 0.0 0.00 0.00 0.00 74 3060.5
20260905125943 59 53 0.0 0.0 0.00 0.00 0.00 74 3060.3